SCP
0 0 0 0 0 0 0 0 0 0 0 0 0 0 0 0 0 0 0 0 0 0 0 0 0 0 0 0 1 0 0 0 0 0 0 0 0 0 0 0 0 0 0 0
0 0 0 0 0 0 0 0 0 0 0 0 0 0 0 0 0 0 0 0 0 0 0 0 0 0 0 0 1 1 0 0 0 0 0 0 0 0 0 0 0 0 0 0
0 0 0 0 0 0 0 0 0 0 0 0 0 0 0 0 0 0 0 0 0 0 0 0 0 0 0 0 1 1 1 0 0 0 0 0 0 0 0 0 0 0 0 0
0 0 0 0 0 0 0 0 0 0 0 0 0 0 0 0 0 0 0 0 0 0 0 0 0 0 0 0 1 1 1 1 1 0 0 0 0 0 0 0 0 0 0 0
0 0 0 0 0 0 0 0 0 0 0 0 0 0 0 0 0 0 0 0 0 0 0 0 0 0 0 0 1 1 1 1 1 1 0 0 0 0 0 0 0 0 0 0
0 0 0 0 0 0 0 0 0 0 0 0 0 0 0 0 0 0 0 0 0 0 0 0 0 0 0 0 0 1 1 1 2 1 1 0 0 0 0 0 0 0 0 0
0 0 0 0 0 0 0 0 0 0 0 0 0 0 0 0 0 0 0 0 0 0 0 0 0 0 0 0 0 1 1 2 2 2 1 1 0 0 0 0 0 0 0 0
0 0 0 0 0 0 0 0 0 0 0 0 0 0 0 0 0 0 0 0 0 0 0 0 0 0 0 0 0 0 1 1 2 2 2 1 1 0 0 0 0 0 0 0
0 0 0 0 0 0 0 0 0 0 0 0 0 0 0 0 0 0 0 0 0 0 0 0 0 0 0 0 0 0 1 1 2 2 2 1 1 0 0 0 0 0 0 0
0 0 0 0 0 0 0 0 0 0 0 0 0 0 0 0 0 0 0 0 0 0 0 0 0 0 0 0 0 0 1 1 2 2 2 1 1 0 0 0 0 0 0 0
0 0 0 0 0 0 0 0 0 0 0 0 0 0 0 0 0 0 0 0 0 0 0 0 0 0 0 0 0 0 0 1 2 2 2 1 1 0 0 0 0 0 0 0
0 0 0 0 0 0 0 0 0 0 0 0 0 0 0 0 0 0 0 0 0 0 0 0 0 0 0 0 0 0 0 0 1 2 2 1 1 0 0 0 0 0 0 0
0 0 0 0 0 0 0 0 0 0 0 0 0 0 0 0 0 0 0 0 0 0 0 0 0 0 0 0 0 0 0 0 0 1 1 1 1 1 0 0 0 0 0 0
0 0 0 0 0 0 0 0 0 0 0 0 0 0 0 0 0 0 0 0 0 0 0 0 0 0 0 0 0 0 0 0 0 0 1 1 1 1 0 0 0 0 0 0
0 0 0 0 0 0 0 0 0 0 0 0 0 0 0 0 0 0 0 0 0 0 0 0 0 0 0 0 0 0 0 0 0 0 1 1 1 1 0 0 0 0 0 0
0 0 0 0 0 0 0 0 0 0 0 0 0 0 0 0 0 0 0 0 0 0 0 0 0 0 0 0 0 0 0 0 0 0 1 1 1 1 0 0 0 0 0 0
0 0 0 0 0 0 0 0 0 0 0 0 0 0 0 0 0 0 0 0 0 0 0 0 0 0 0 0 0 0 0 0 0 0 1 1 1 1 1 0 0 0 0 0
0 0 0 0 0 0 0 0 0 0 0 0 0 0 0 0 0 0 0 0 0 0 0 0 0 0 0 0 0 0 0 0 0 0 0 1 1 1 1 1 0 0 0 0
0 0 0 0 0 0 0 0 0 0 0 0 0 0 0 0 0 0 0 0 0 0 0 0 0 0 0 0 0 0 0 0 0 0 0 0 1 1 1 1 0 0 0 0
0 0 0 0 0 0 0 0 0 0 0 0 0 0 0 0 0 0 0 0 0 0 0 0 0 0 0 0 0 0 0 0 0 0 0 0 0 1 1 1 0 0 0 0
0 0 0 0 0 0 0 0 0 0 0 0 0 0 0 0 0 0 0 0 0 0 0 0 0 0 0 0 0 0 0 0 0 0 0 0 0 1 1 1 0 0 0 0
0 0 0 0 0 0 0 0 0 0 0 0 0 0 0 0 0 0 0 0 0 0 0 0 0 0 0 0 0 0 0 0 0 0 0 0 1 1 1 1 0 0 0 0
0 0 0 0 0 0 0 0 0 0 0 0 0 0 0 0 0 0 0 0 0 0 0 0 0 0 0 0 0 0 0 0 0 0 0 0 1 1 1 1 0 0 0 0
0 0 0 0 0 0 0 0 0 0 0 0 0 0 0 0 0 0 0 0 0 0 0 0 0 0 0 0 0 0 0 0 0 0 0 0 0 1 1 1 1 0 0 0
0 0 0 0 0 0 0 0 0 0 0 0 0 0 0 0 0 0 0 0 0 0 0 0 0 0 0 0 0 0 0 0 0 0 0 0 0 1 1 1 1 0 0 0
0 0 0 0 0 0 0 0 0 0 0 0 0 0 0 0 0 0 0 0 0 0 0 0 0 0 0 0 0 0 0 0 0 0 0 0 1 1 1 1 1 0 0 0
Wind_Speed
4 5 3 3 3 3 4 5 4 1 1 3 3 2 3 4 5 5 5 5 6 7 4 3 4 4 4 4 4 4 5 4 4 2 2 2 2 2 2 3 4 4 4 4
6 3 1 2 5 5 5 5 3 2 2 3 2 1 2 4 6 7 8 8 8 6 3 4 4 4 5 5 5 4 5 4 3 3 2 2 2 1 1 2 3 4 4 4
4 1 2 5 5 5 3 3 3 3 3 3 2 2 2 3 3 5 6 7 7 9 8 6 6 5 5 6 6 5 5 4 3 4 3 3 3 3 2 3 2 3 4 4
2 0 3 5 3 4 1 2 4 4 4 0 1 1 5 3 3 6 7 7 8 8 7 7 7 6 6 6 5 5 5 4 4 4 4 4 3 2 1 0 1 2 3 4
1 2 3 3 2 4 3 3 3 3 3 2 1 1 6 2 5 8 9 9 9 8 8 8 9 8 7 6 6 5 5 4 4 4 5 5 3 2 1 1 2 2 3 3
1 1 1 1 2 4 4 5 5 4 3 0 2 3 6 5 9 7 8 9 9 9 8 7 6 6 5 5 5 5 5 4 4 4 4 5 5 4 3 1 1 1 2 2
2 2 1 2 4 3 3 5 3 3 2 3 2 3 8 8 7 10 10 9 9 9 8 7 7 7 7 7 7 6 6 5 4 5 4 5 5 5 4 3 2 1 1 1
2 1 2 2 3 4 3 5 5 3 3 2 1 5 8 5 5 6 7 6 7 8 8 9 10 9 9 8 8 7 7 6 5 5 5 4 4 3 2 3 2 2 1 1
4 1 1 2 2 6 4 2 3 4 1 1 3 5 8 2 1 2 4 5 7 8 9 9 8 8 8 9 9 9 8 6 6 6 5 4 4 4 3 3 2 2 1 1
5 2 1 1 3 2 3 5 4 3 3 1 4 4 4 4 3 2 4 6 7 7 7 7 7 8 8 8 7 7 7 7 6 6 5 5 4 4 3 3 3 2 1 1
4 4 1 1 3 4 3 3 3 3 3 4 1 6 5 5 5 5 6 7 7 8 8 8 7 7 7 6 6 7 7 6 6 6 5 4 4 4 4 3 3 3 2 2
4 5 1 3 2 2 3 4 5 3 2 3 2 7 5 4 5 5 5 5 5 6 7 7 6 6 6 7 7 7 7 7 6 6 5 5 4 4 4 3 3 3 3 2
6 5 3 4 4 1 1 2 3 4 4 3 2 7 4 3 2 2 4 4 4 4 5 5 5 6 7 7 7 7 7 7 6 6 6 5 5 5 5 4 4 3 3 3
6 4 5 5 5 3 2 3 4 5 3 3 6 7 8 6 5 3 2 3 3 4 5 6 6 6 7 7 7 7 7 6 6 6 6 6 6 6 5 4 4 4 4 3
5 3 2 3 3 2 3 4 5 6 7 7 6 6 9 7 5 4 2 3 4 4 5 6 6 6 6 6 6 7 6 6 7 7 7 7 6 5 5 4 4 4 3 4
3 3 2 2 1 1 2 4 5 6 5 5 4 7 8 4 1 1 2 3 3 4 5 6 6 6 7 7 7 7 7 7 6 7 7 6 5 5 5 5 4 4 4 3
3 5 3 2 3 2 3 6 5 4 5 6 7 8 4 2 2 2 3 4 5 6 5 6 7 7 8 8 8 8 7 6 7 7 6 6 6 6 5 5 5 5 4 3
6 5 3 1 2 2 7 3 4 4 4 5 5 5 3 4 2 1 2 4 5 5 4 5 5 6 5 5 5 5 5 6 7 7 6 6 6 6 5 5 5 5 4 4
4 7 5 3 2 4 7 3 3 3 4 4 6 5 3 2 2 4 2 2 4 4 4 4 5 5 5 5 5 6 5 5 6 6 7 7 7 7 6 6 6 4 4 4
5 5 6 4 3 5 7 3 1 2 4 4 4 4 3 4 2 4 3 1 1 0 1 2 2 3 4 4 6 6 6 5 6 7 7 6 7 7 7 7 5 4 4 4
3 3 4 4 4 8 7 3 3 3 7 3 4 4 5 5 5 3 1 1 1 1 2 3 4 4 3 4 6 6 5 6 6 5 4 5 6 7 6 5 4 4 4 3
6 5 5 5 3 8 3 3 6 7 3 2 3 4 5 4 2 1 1 1 2 2 3 3 4 3 2 4 6 5 5 4 3 4 4 4 5 4 4 5 4 3 4 3
6 8 7 9 8 5 2 5 4 2 3 3 3 3 5 4 2 2 1 1 1 2 2 2 3 4 3 3 5 5 3 2 3 4 3 3 3 3 3 4 4 3 3 3
3 2 3 3 6 5 4 4 3 3 4 3 3 4 5 5 4 3 2 1 1 2 2 2 4 4 2 1 2 2 2 3 4 4 2 2 3 2 2 2 3 3 4 4
5 4 3 4 5 4 5 4 3 2 2 1 1 2 5 5 4 3 2 1 1 1 1 2 3 3 2 1 1 1 2 4 4 3 2 2 2 3 2 2 2 4 4 5
6 8 8 8 8 6 6 4 2 2 2 3 3 2 2 4 4 4 3 2 2 2 2 2 3 2 2 2 2 2 2 4 5 3 2 2 2 2 2 1 1 2 3 5
Wind_Direction
30 65 95 157 151 132 119 116 109 118 138 125 146 174 204 176 175 188 194 200 210 220 225 192 176 160 146 142 143 143 137 137 128 111 103 89 63 26 22 27 34 38 42 45
50 46 215 119 105 93 102 109 102 74 98 126 133 243 232 189 195 197 197 204 208 207 197 194 181 172 168 165 165 157 156 157 155 140 130 121 115 82 43 9 30 32 38 38
103 167 133 114 109 105 104 148 150 136 86 71 94 340 271 233 209 209 209 206 204 200 197 196 188 187 175 176 180 174 168 163 153 136 110 87 64 44 28 13 13 11 31 41
82 118 121 112 110 123 140 165 143 130 105 60 127 243 272 229 224 220 217 209 210 209 199 195 189 188 189 188 178 167 164 157 150 142 139 139 138 139 190 326 0 13 32 40
81 129 115 116 151 148 171 134 112 99 108 72 57 158 278 224 234 235 222 213 212 205 197 197 194 191 190 181 173 168 157 151 148 151 152 140 134 139 115 63 45 31 23 31
89 116 135 148 110 136 123 86 67 52 73 33 217 174 270 225 218 226 220 211 209 202 197 197 191 179 179 172 166 162 158 159 154 153 153 152 151 146 130 110 74 26 12 18
36 18 12 122 93 71 92 98 69 27 24 254 217 196 250 241 222 212 213 210 203 195 189 186 183 184 184 179 176 170 167 169 164 159 163 166 162 160 164 169 165 139 33 5
116 294 239 185 160 158 157 136 147 170 205 276 220 232 256 259 244 217 207 196 189 192 190 190 191 188 188 184 179 175 177 177 170 168 174 167 164 163 173 179 176 178 188 217
149 247 282 197 159 135 132 146 152 127 130 320 282 285 299 312 345 188 183 177 190 195 194 195 191 187 187 185 184 183 181 178 176 176 170 166 170 171 178 176 168 177 191 184
138 135 301 159 88 49 133 141 105 112 134 288 306 289 268 291 282 239 200 201 203 194 192 191 188 187 188 187 181 178 181 183 178 176 177 173 175 176 168 153 162 174 177 141
123 124 343 83 188 182 126 120 117 116 144 148 277 281 237 243 244 231 224 212 202 194 193 190 189 185 177 170 171 177 181 178 176 179 177 167 170 166 156 159 173 174 168 157
142 122 171 253 260 185 167 171 151 147 195 165 177 271 276 258 253 226 227 221 206 196 190 183 177 169 169 175 177 180 182 184 185 178 172 173 167 161 163 171 177 168 165 162
143 118 85 358 349 10 146 173 157 129 121 152 175 269 298 331 317 242 216 212 197 182 172 167 166 174 182 184 184 183 185 187 179 169 170 172 172 174 181 184 180 169 163 157
120 117 153 185 217 201 214 193 161 137 150 199 224 255 295 310 304 287 232 194 178 174 171 171 179 187 189 188 187 185 189 184 176 171 174 183 190 189 187 181 176 173 167 164
114 138 194 229 231 183 209 216 185 189 192 195 231 243 266 274 267 262 223 173 162 169 174 182 188 190 187 188 191 190 190 185 179 176 185 196 190 181 173 173 176 171 171 177
108 138 135 315 313 199 255 260 216 216 213 220 242 266 261 269 264 255 206 178 187 199 196 192 190 188 191 194 194 191 190 187 176 183 195 190 175 176 180 181 176 170 174 174
134 133 126 276 315 40 292 252 214 212 212 195 217 243 266 292 274 240 220 204 211 216 208 199 197 197 199 199 194 194 192 176 176 187 188 179 176 182 189 183 174 181 185 179
139 125 129 136 62 250 250 248 204 210 247 219 223 246 239 225 236 264 222 211 228 224 213 209 202 199 197 188 184 177 163 168 179 185 185 181 179 186 184 179 186 192 186 185
137 133 123 126 171 280 294 270 189 191 273 229 218 240 230 184 35 341 303 219 221 219 210 205 197 186 173 171 168 152 157 167 177 190 192 187 182 183 182 191 199 194 186 195
69 99 116 131 159 232 252 261 216 122 292 254 202 214 185 127 95 276 301 297 279 199 146 149 140 130 144 162 153 150 163 171 193 202 200 188 183 184 191 198 196 188 190 202
86 83 128 160 203 254 254 266 124 153 242 250 195 197 170 176 198 224 346 30 53 85 89 110 119 128 151 151 148 155 167 197 208 197 185 180 185 191 192 188 185 182 183 184
171 161 177 152 186 251 247 143 175 214 234 216 199 187 172 186 182 124 79 71 75 75 76 97 113 118 120 138 146 157 194 208 173 161 169 179 182 188 180 174 178 174 172 183
191 187 183 185 209 238 228 216 238 210 212 221 201 193 164 161 170 145 116 89 68 85 91 98 116 111 103 137 151 169 204 153 139 142 162 174 169 174 166 170 173 169 175 189
247 163 150 228 261 259 263 259 264 223 216 222 196 178 161 165 170 157 140 111 74 62 89 104 107 109 116 150 162 178 151 137 132 137 148 149 146 150 153 166 173 177 187 198
213 165 172 240 264 290 288 247 241 226 194 175 155 156 164 155 157 153 145 140 124 101 98 113 124 132 145 133 110 85 120 130 128 129 134 138 144 155 161 178 195 199 208 201
197 179 180 219 221 198 238 248 210 176 187 179 149 121 137 152 158 144 144 145 134 127 121 118 121 124 122 111 94 76 110 131 131 127 135 148 149 156 162 173 277 269 245 248